[[{"header":{"parameterUnit":"m.s-1","parameterCategory":1,"la1":30.2991,"la2":30.254,"lo1":-89.0895,"lo2":-89.0444,"dy":0.0017,"dx":0.0017,"nx":28,"ny":28,"refTime":"2023-08-06T09:00:00:Z","depth":0,"parameterNumber":2,"parameterNumberName":"U-component_of_WINDS"},"data":[0,0,0,0,0,0,0,0,0,0,0,0,0,0,0,0,0,0,0,0,0,0,0,0,0,0,0,0,0,0,0,0,0,0,0,0,0,0,0,0,0,0,0,0,0,0,0,0,0,0,0,0,0,0,0,0,0,0,6.5146,6.5148,0,6.5302,6.5304,6.5306,6.523,6.5226,6.5222,6.5219,6.5377,6.5385,6.5393,0,0,0,0,0,0,0,0,0,0,0,0,0,6.4779,6.4787,6.5146,6.5148,6.515,6.5302,6.5304,6.5306,6.5231,6.5226,6.5221,6.5217,6.5374,6.5384,6.5393,0,0,0,0,0,0,0,0,0,0,0,0,0,6.4937,6.4789,6.5146,6.5131,6.5131,6.5302,6.5304,6.5307,6.5232,6.5226,6.522,6.5214,6.5371,6.5383,6.5395,6.5589,0,0,6.5431,6.5436,0,0,0,0,0,0,0,0,6.4929,6.4951,6.5131,6.5132,6.5133,6.5241,6.5233,6.5401,6.5234,6.5194,6.5218,6.5211,6.5336,6.5351,6.5393,6.5596,6.5603,6.5432,6.5439,6.5445,6.5448,0,0,0,0,0,0,0,6.4918,6.4944,6.5208,6.5134,6.5135,6.5115,6.5131,6.5264,6.5297,6.5197,6.5192,6.5211,6.5336,6.5382,6.5396,6.5605,6.5432,6.5442,6.545,6.5454,6.597,6.5976,0,0,0,0,0,0,6.4908,6.4935,6.5203,6.5213,6.5014,6.5127,6.5144,6.5212,6.5295,6.5302,6.5216,6.5207,6.5365,6.5383,6.5402,6.563,6.5444,6.5456,6.5462,6.5963,6.5971,6.5978,0,0,0,0,0,0,6.49,6.4932,6.5197,6.5073,6.5105,6.5139,6.5216,6.5218,6.5264,6.531,6.5315,6.5258,6.5361,6.5385,6.5542,6.5635,6.5461,6.5472,6.5956,6.5966,6.5975,6.6092,0,0,0,0,0,0,6.489,6.493,6.5005,6.5075,6.5112,6.5336,6.5222,6.5226,6.5285,6.5275,6.535,6.5357,6.5358,6.5524,6.5554,6.5648,6.5481,6.5947,6.596,6.5972,6.608,6.6104,6.6125,0,0,0,0,0,6.4877,6.5033,6.5009,6.5042,6.5206,6.5341,6.5362,6.536,6.5293,6.5368,6.5396,6.5354,6.5621,6.5541,6.5573,6.5673,6.5941,6.5956,6.5971,6.6069,6.6099,6.6125,0,0,0,0,0,0,6.4973,6.5042,6.5016,6.52,6.5265,6.5328,6.5422,6.5393,6.5478,6.5465,6.5459,6.5476,6.5638,6.5672,6.5582,6.5863,6.577,6.5792,6.5834,6.5863,6.5886,6.5873,6.5491,0,0,0,0,0,6.5016,6.512,6.5174,6.533,6.5364,6.5388,6.5447,6.5439,6.5507,6.5534,6.5574,6.5641,6.5738,6.5803,6.5897,6.6085,6.6098,6.6169,6.6192,6.6211,6.6229,6.6326,6.6357,6.6026,6.6026,6.6026,0,0,6.5105,6.5155,6.5221,6.5351,6.5401,6.5507,6.5412,6.553,6.5608,6.5552,6.5701,6.5733,6.5806,6.5979,6.6057,6.6012,6.6323,6.6229,6.6244,6.6252,6.6345,6.6376,6.6404,6.6036,6.6035,6.6033,0,0,6.532,6.537,6.5503,6.5555,6.5631,6.5646,6.5678,6.5745,6.5764,6.5914,6.5873,6.5966,6.6136,6.6188,6.6238,6.647,6.6433,6.6501,6.6619,6.6715,6.6741,6.6764,6.6843,6.6872,6.6519,6.652,6.652,0,6.542,6.558,6.5576,6.5696,6.5752,6.5707,6.584,6.589,6.5993,6.6032,6.5981,6.6191,6.6238,6.6419,6.6476,6.6519,6.6552,6.6491,6.6738,6.6761,6.6782,6.6857,6.6887,6.6527,6.6526,6.6526,6.6525,0,6.5697,6.5809,6.5907,6.6006,6.6074,6.6201,6.6214,6.6283,6.627,6.6289,6.644,6.6494,6.6596,6.6639,6.6628,6.6818,6.6787,6.6738,6.6644,6.6821,6.6891,6.692,6.6538,6.6535,6.6533,6.6531,0,0,6.5977,6.6071,6.6107,6.615,6.623,6.6315,6.6438,6.6537,6.6594,6.6667,6.6768,6.6912,6.6865,6.692,6.6915,6.6999,6.7174,6.6938,6.6939,6.6976,6.7383,6.7417,6.7451,6.7151,6.7157,6.7161,6.7375,0,6.6195,6.641,6.6409,6.6607,6.6708,6.6665,6.6771,6.6831,6.6852,6.6939,6.6962,6.7062,6.6995,6.7027,6.7109,6.7136,6.7255,6.7121,6.7242,6.7246,6.7221,6.7488,6.7526,6.7725,6.7403,6.7408,6.7411,0,6.6478,6.6558,6.6766,6.6828,6.687,6.6966,6.7054,6.7139,6.7205,6.7214,6.7275,6.7255,6.7378,6.7283,6.745,6.7358,6.7408,6.7428,6.7436,6.7444,6.7337,6.75,6.7789,6.7817,6.7455,6.7452,6.7448,0,6.6655,6.6816,6.696,6.6999,6.7076,6.7143,6.7178,6.7238,6.7296,6.7374,6.7411,6.7502,6.7551,6.7621,6.7625,6.7557,6.7792,6.7699,6.78,6.78,6.7849,6.7846,6.8146,6.7888,6.7888,6.7887,6.7886,0,6.6897,6.7025,6.704,6.7129,6.7269,6.7267,6.7406,6.7435,6.7488,6.7579,6.7549,6.7635,6.7637,6.7725,6.773,6.7864,6.7888,6.7896,6.7895,6.7897,6.7895,6.7927,6.7912,6.7895,6.7893,6.7892,6.789,0,6.7118,6.7134,6.7288,6.7348,6.7365,6.7466,6.7516,6.7599,6.7617,6.7733,6.776,6.7787,6.7888,6.79,6.8019,6.8022,6.8183,6.8169,6.816,6.8157,6.8256,6.8245,6.8585,6.8627,6.8345,6.8348,6.835,0,6.7269,6.7366,6.7436,6.7495,6.7533,6.7629,6.7688,6.7688,6.7751,6.7831,6.7903,6.8002,6.808,6.8243,6.8272,6.8362,6.8348,6.8461,6.8361,6.8358,6.8344,6.8337,6.8344,6.8479,6.8482,6.8484,6.8486,0,6.7534,6.7537,6.7623,6.7711,6.7782,6.7852,6.7917,6.7967,6.7975,6.8046,6.8149,6.821,6.833,6.8426,6.8514,6.8548,6.8518,6.8518,6.8545,6.8546,6.8535,6.8538,6.8209,6.8509,6.8507,6.8505,6.8504,6.8503,6.7722,6.7805,6.7866,6.7962,6.8011,6.8072,6.8151,6.8178,6.8264,6.8361,6.8357,6.8469,6.8529,6.8643,6.8684,6.877,6.8732,6.8774,6.8783,6.8792,6.88,6.8525,6.8787,6.8786,6.8786,6.8785,6.8785,0,6.7982,6.8018,6.8107,6.8198,6.8273,6.8239,6.8309,6.8373,6.8472,6.8531,6.8608,6.8724,6.8817,6.8854,6.8944,6.9006,6.8994,6.9029,6.9022,6.903,6.8831,6.8796,6.9037,6.9037,6.9037,6.9037,6.9037,6.9036,6.8125,6.8262,6.8271,6.8431,6.8466,6.8576,6.8618,6.8673,6.8719,6.885,6.8927,6.895,6.8999,6.9092,6.9175,6.9183,6.9215,6.9256,6.9258,6.907,6.9045,6.902,6.8987,6.9264,6.9264,6.9449,6.945,6.9452]},{"header":{"parameterUnit":"m.s-1","parameterCategory":1,"la1":30.2991,"la2":30.254,"lo1":-89.0895,"lo2":-89.0444,"dy":0.0017,"dx":0.0017,"nx":28,"ny":28,"refTime":"2023-08-06T09:00:00:Z","depth":0,"parameterNumber":3,"parameterNumberName":"V-component_of_WINDS"},"data":[0,0,0,0,0,0,0,0,0,0,0,0,0,0,0,0,0,0,0,0,0,0,0,0,0,0,0,0,0,0,0,0,0,0,0,0,0,0,0,0,0,0,0,0,0,0,0,0,0,0,0,0,0,0,0,0,0,0,3.8499,3.85,0,3.8616,3.8618,3.8619,3.8609,3.8607,3.8605,3.8604,3.8722,3.8726,3.8731,0,0,0,0,0,0,0,0,0,0,0,0,0,3.8261,3.8266,3.8498,3.85,3.8501,3.8616,3.8618,3.8619,3.8609,3.8607,3.8605,3.8603,3.872,3.8726,3.8732,0,0,0,0,0,0,0,0,0,0,0,0,0,3.837,3.8267,3.8498,3.851,3.8513,3.8616,3.8618,3.862,3.861,3.8607,3.8604,3.8602,3.8718,3.8725,3.8732,3.883,0,0,3.8754,3.8758,0,0,0,0,0,0,0,0,3.8364,3.8379,3.8507,3.851,3.8512,3.8595,3.8577,3.869,3.861,3.8573,3.8604,3.8601,3.8682,3.8692,3.872,3.8836,3.8841,3.8755,3.8759,3.8763,3.8765,0,0,0,0,0,0,0,3.8356,3.8374,3.8545,3.8509,3.8512,3.8509,3.8521,3.8599,3.8641,3.8576,3.8575,3.859,3.8683,3.8713,3.8722,3.8843,3.8755,3.8761,3.8766,3.8769,3.9042,3.9045,0,0,0,0,0,0,3.8346,3.8367,3.8541,3.8548,3.843,3.8515,3.8529,3.8571,3.864,3.8648,3.8592,3.8589,3.8702,3.8714,3.8726,3.8844,3.8762,3.8769,3.8773,3.9039,3.9043,3.9046,0,0,0,0,0,0,3.8341,3.8362,3.8536,3.8458,3.848,3.8522,3.8569,3.8575,3.8605,3.8652,3.8659,3.8615,3.87,3.8716,3.8804,3.8848,3.8773,3.8779,3.9036,3.9041,3.9045,3.9081,0,0,0,0,0,0,3.8335,3.836,3.8399,3.8459,3.8484,3.8614,3.8572,3.8579,3.8618,3.8615,3.8676,3.8683,3.8699,3.8793,3.8811,3.8857,3.8785,3.9032,3.9038,3.9043,3.9076,3.9086,3.9095,0,0,0,0,0,3.8326,3.8405,3.8401,3.8422,3.8534,3.8616,3.8631,3.8648,3.8622,3.866,3.8689,3.8681,3.884,3.8803,3.8823,3.8871,3.903,3.9036,3.9043,3.9072,3.9084,3.9095,0,0,0,0,0,0,3.8349,3.8413,3.841,3.851,3.8558,3.8614,3.8664,3.8661,3.8717,3.8712,3.873,3.8744,3.8832,3.886,3.8817,3.8968,3.8931,3.8942,3.8947,3.8959,3.8968,3.8959,3.8791,0,0,0,0,0,3.8365,3.8428,3.848,3.8564,3.8588,3.8622,3.8658,3.8668,3.8718,3.8738,3.8774,3.8822,3.8882,3.8922,3.898,3.908,3.9092,3.9123,3.9132,3.9139,3.9149,3.9201,3.9215,3.9068,3.9068,3.9068,0,0,3.84,3.8443,3.8482,3.8569,3.8608,3.8671,3.8639,3.8708,3.8754,3.8748,3.8833,3.8861,3.8915,3.9009,3.9052,3.9035,3.9192,3.9148,3.9153,3.9159,3.921,3.9223,3.9236,3.9073,3.9072,3.9071,0,0,3.8497,3.8536,3.8609,3.8647,3.8706,3.8727,3.8744,3.8802,3.882,3.8906,3.8902,3.8956,3.9061,3.91,3.9133,3.9241,3.9235,3.9259,3.9308,3.9359,3.9371,3.9381,3.9419,3.9432,3.9268,3.9268,3.9269,0,3.8533,3.8629,3.8647,3.8716,3.8753,3.8751,3.8824,3.886,3.8934,3.8959,3.8939,3.9069,3.9106,3.9207,3.9233,3.9261,3.928,3.9253,3.9368,3.9379,3.9388,3.9424,3.9438,3.9271,3.9271,3.927,3.927,0,3.867,3.8736,3.8788,3.886,3.8903,3.8974,3.9001,3.9042,3.9047,3.907,3.9156,3.92,3.9266,3.9291,3.9297,3.9393,3.938,3.9364,3.9328,3.9405,3.9438,3.9452,3.9275,3.9274,3.9273,3.9272,0,0,3.8785,3.8864,3.8882,3.8914,3.8977,3.9028,3.9097,3.9163,3.9197,3.9248,3.9306,3.9393,3.9378,3.9415,3.9425,3.947,3.9551,3.9448,3.9449,3.9465,3.9658,3.9669,3.9685,3.9547,3.9549,3.9552,3.9653,0,3.8886,3.9011,3.9027,3.9137,3.9197,3.9194,3.9254,3.9299,3.9322,3.9375,3.94,3.9461,3.9437,3.9459,3.9504,3.9532,3.959,3.9525,3.9599,3.9602,3.9586,3.9703,3.9716,3.9809,3.9666,3.9668,3.967,0,3.9022,3.9076,3.9192,3.9245,3.9271,3.9325,3.9385,3.9437,3.9486,3.9499,3.954,3.9543,3.9613,3.9574,3.9669,3.9625,3.9656,3.9674,3.9678,3.9685,3.9641,3.9713,3.984,3.9854,3.9691,3.969,3.9688,0,3.9093,3.9195,3.9277,3.9304,3.9368,3.9405,3.9434,3.948,3.9518,3.957,3.9594,3.9653,3.9685,3.973,3.9749,3.9718,3.9843,3.9805,3.9854,3.9854,3.9881,3.9879,4.0014,3.9902,3.9902,3.9901,3.9901,0,3.9205,3.9275,3.9309,3.9359,3.9437,3.9455,3.9531,3.9558,3.9599,3.9653,3.9654,3.9704,3.9726,3.9779,3.9794,3.987,3.9885,3.9896,3.9899,3.9896,3.9894,3.9917,3.991,3.9905,3.9904,3.9904,3.9903,0,3.9297,3.9323,3.9412,3.9464,3.9479,3.9534,3.9579,3.9627,3.9648,3.9717,3.9733,3.9767,3.983,3.9853,3.9929,3.9939,4.0026,4.0024,4.001,4.0011,4.0058,4.0053,4.0212,4.0233,4.0108,4.0109,4.011,0,3.9367,3.9421,3.9479,3.9516,3.9545,3.9604,3.9642,3.9661,3.97,3.9759,3.9799,3.9861,3.9912,4.0012,4.0043,4.01,4.0099,4.0151,4.0108,4.0102,4.0099,4.0095,4.01,4.0159,4.016,4.0161,4.0162,0,3.9487,3.9496,3.9552,3.9611,3.9656,3.9704,3.975,3.978,3.9805,3.9849,3.9913,3.9952,4.003,4.0091,4.015,4.0177,4.0173,4.0175,4.019,4.0187,4.0176,4.0181,4.0031,4.0172,4.0171,4.017,4.0169,4.0169,3.9569,3.9616,3.9664,3.9725,3.9762,3.9804,3.9851,3.9879,3.9933,3.9998,4.0005,4.0074,4.0119,4.0198,4.0227,4.028,4.0266,4.0287,4.0292,4.0297,4.03,4.0168,4.0291,4.0291,4.0291,4.029,4.029,0,3.9688,3.9718,3.9775,3.9839,3.9886,3.9879,3.9929,3.9969,4.003,4.0073,4.0123,4.0195,4.0254,4.0289,4.0347,4.0383,4.0383,4.0398,4.0395,4.0401,4.031,4.0291,4.0397,4.0397,4.0397,4.0397,4.0397,4.0397,3.9756,3.9835,3.985,3.9946,3.9975,4.0043,4.0072,4.0111,4.0145,4.0227,4.0276,4.0298,4.0337,4.0398,4.0451,4.046,4.0481,4.0497,4.0504,4.0419,4.0408,4.0397,4.038,4.0502,4.0502,4.0591,4.0591,4.0592]}]]